Home > Weather > Inuvik > Past weeks

Flag for Canada Past Weather in Inuvik, Northwest Territories, Canada — Yesterday and Last 2 Weeks

Now
48 °F

Broken clouds.


Feels Like: 45 °F
Forecast: 46 / 69 °F
Wind: 8 mph from North

Location: Inuvik

Current Time: Jun 30, 2016 at 6:19:40 AM

Latest Report: Jun 30, 2016 at 5:00 AM


Visibility: 15 mi

Pressure: 30.13 "Hg

Humidity: 87%

Dew Point: 45 °F

Location of InuvikLocation

Past Weather in Inuvik — Graph

°F

Inuvik Temperature Yesterday

Maximum temperature yesterday: 79 °F (at 3:00 PM)
Minimum temperature yesterday: 61 °F (at 5:00 AM)
Average temperature yesterday: 69 °F

High & Low Weather Summary for the Past Weeks

 TemperatureHumidityPressure
High82 °F (Jun 18, 6:00 PM)100% (Jun 22, 2:00 AM)30.20 "Hg (Jun 22, 2:00 AM)
Low32 °F (Jun 17, 3:00 AM)19% (Jun 18, 8:00 PM)29.67 "Hg (Jun 19, 8:00 PM)
Average57 °F66%29.95 "Hg
* Reported Jun 15 5:00 AM — Jun 30 5:00 AM, Inuvik, Weather by CustomWeather, © 2016

Note: Actual official high and low records may vary slightly from our data, if they occured in-between our weather recording intervals... More about our weather records

Advertising

Inuvik Weather History for the Previous 24 Hours

Scroll right to see more
 ConditionsComfort  
Time TempWeatherWind HumidityBarometerVisibility
5:00 AM
Thu, Jun 30
48 °FBroken clouds.8 mph87%30.13 "Hg15 mi
4:00 AM50 °FPartly sunny.8 mph88%30.13 "Hg15 mi
3:55 AM50 °FPartly sunny.6 mph88%30.13 "Hg15 mi
3:00 AM52 °FScattered clouds.5 mph82%30.10 "Hg15 mi
2:00 AM54 °FPartly sunny.10 mph77%30.08 "Hg15 mi
1:00 AM57 °FScattered clouds.9 mph67%30.05 "Hg15 mi
12:00 AM64 °FScattered clouds.8 mph56%30.04 "Hg15 mi
11:00 PM
Wed, Jun 29
64 °FPartly sunny.9 mph52%30.03 "Hg15 mi
10:00 PM68 °FScattered clouds.8 mph49%30.02 "Hg15 mi
9:00 PM68 °FScattered clouds.9 mph49%30.02 "Hg15 mi
8:00 PM72 °FScattered clouds.13 mph47%30.02 "Hg15 mi
7:00 PM72 °FPassing clouds.10 mph50%30.02 "Hg15 mi
6:00 PM75 °FPassing clouds.13 mph44%30.02 "Hg15 mi
5:00 PM77 °FPassing clouds.9 mph42%30.01 "Hg15 mi
4:00 PM77 °FPassing clouds.10 mph42%30.01 "Hg15 mi
3:00 PM79 °FPassing clouds.13 mph37%30.00 "Hg15 mi
2:00 PM77 °FPassing clouds.8 mph34%30.01 "Hg15 mi
1:00 PM77 °FPassing clouds.7 mph39%30.01 "Hg15 mi
12:00 PM73 °FPassing clouds.6 mph50%30.00 "Hg15 mi
11:00 AM73 °FPassing clouds.7 mph50%30.00 "Hg15 mi
10:00 AM72 °FSunny.7 mph53%30.00 "Hg15 mi
9:00 AM68 °FPassing clouds.7 mph60%30.01 "Hg15 mi
8:00 AM66 °FPassing clouds.7 mph64%30.01 "Hg15 mi
7:00 AM63 °FPassing clouds.9 mph73%30.01 "Hg15 mi
6:00 AM61 °FPassing clouds.5 mph72%30.01 "Hg15 mi
Weather by CustomWeather, © 2016

See weather overviewHow to use our weather pages